Time,TemperatureF,DewpointF,PressureIn,WindDirection,WindDirectionDegrees,WindSpeedMPH,WindSpeedGustMPH,Humidity,HourlyPrecipIn,Conditions,Clouds,dailyrainin,SoftwareType,DateUTC
2013-03-07 00:00:00,42.1,14.0,29.38,NNW,337,1.0,2.0,32,0.00,,,0.00,WeatherTracker,2013-03-07 06:00:00,
2013-03-07 00:10:00,42.1,15.8,29.38,WSW,247,1.0,2.0,33,0.00,,,0.00,WeatherTracker,2013-03-07 06:10:00,
2013-03-07 00:15:00,42.1,15.8,29.38,WNW,292,1.0,0.0,33,0.00,,,0.00,WeatherTracker,2013-03-07 06:15:00,
2013-03-07 00:20:00,42.1,15.8,29.38,South,180,2.0,2.0,34,0.00,,,0.00,WeatherTracker,2013-03-07 06:20:00,
2013-03-07 00:25:00,42.1,15.8,29.38,NNE,22,1.0,1.0,34,0.00,,,0.00,WeatherTracker,2013-03-07 06:25:00,
2013-03-07 00:30:00,42.1,15.8,29.38,WNW,292,2.0,2.0,34,0.00,,,0.00,WeatherTracker,2013-03-07 06:30:00,
2013-03-07 00:35:00,41.9,15.8,29.38,West,270,1.0,1.0,34,0.00,,,0.00,WeatherTracker,2013-03-07 06:35:00,
2013-03-07 00:40:00,41.7,15.8,29.38,SE,135,1.0,0.0,34,0.00,,,0.00,WeatherTracker,2013-03-07 06:40:00,
2013-03-07 00:45:00,41.5,15.8,29.38,South,180,2.0,2.0,34,0.00,,,0.00,WeatherTracker,2013-03-07 06:45:00,
2013-03-07 00:50:00,41.4,15.8,29.38,South,180,1.0,1.0,34,0.00,,,0.00,WeatherTracker,2013-03-07 06:50:00,
2013-03-07 00:55:00,41.2,15.8,29.38,South,180,1.0,1.0,34,0.00,,,0.00,WeatherTracker,2013-03-07 06:55:00,
2013-03-07 01:00:00,41.2,15.8,29.38,South,180,0.0,0.0,35,0.00,,,0.00,WeatherTracker,2013-03-07 07:00:00,
2013-03-07 01:05:00,41.0,15.8,29.38,South,180,1.0,2.0,35,0.00,,,0.00,WeatherTracker,2013-03-07 07:05:00,
2013-03-07 01:10:00,40.8,15.8,29.38,South,180,1.0,1.0,36,0.00,,,0.00,WeatherTracker,2013-03-07 07:10:00,
2013-03-07 01:15:00,40.6,14.0,29.38,South,180,0.0,0.0,35,0.00,,,0.00,WeatherTracker,2013-03-07 07:15:00,
2013-03-07 01:20:00,40.3,15.8,29.38,South,180,1.0,0.0,36,0.00,,,0.00,WeatherTracker,2013-03-07 07:20:00,
2013-03-07 01:25:00,40.1,15.8,29.38,South,180,1.0,1.0,37,0.00,,,0.00,WeatherTracker,2013-03-07 07:25:00,
2013-03-07 01:30:00,39.7,15.8,29.38,South,180,0.0,0.0,37,0.00,,,0.00,WeatherTracker,2013-03-07 07:30:00,
2013-03-07 01:35:00,39.0,15.8,29.38,South,180,0.0,0.0,37,0.00,,,0.00,WeatherTracker,2013-03-07 07:35:00,
2013-03-07 01:40:00,38.1,14.0,29.38,South,180,1.0,0.0,38,0.00,,,0.00,WeatherTracker,2013-03-07 07:40:00,
2013-03-07 01:50:00,38.1,15.8,29.38,South,180,0.0,0.0,39,0.00,,,0.00,WeatherTracker,2013-03-07 07:50:00,
2013-03-07 02:00:00,37.4,15.8,29.38,South,180,0.0,0.0,39,0.00,,,0.00,WeatherTracker,2013-03-07 08:00:00,
2013-03-07 02:05:00,37.2,15.8,29.38,South,180,0.0,0.0,40,0.00,,,0.00,WeatherTracker,2013-03-07 08:05:00,
2013-03-07 02:10:00,37.0,15.8,29.38,South,180,0.0,0.0,40,0.00,,,0.00,WeatherTracker,2013-03-07 08:10:00,
2013-03-07 02:15:00,36.7,15.8,29.38,South,180,0.0,0.0,40,0.00,,,0.00,WeatherTracker,2013-03-07 08:15:00,
2013-03-07 02:25:00,36.1,15.8,29.38,South,180,0.0,0.0,41,0.00,,,0.00,WeatherTracker,2013-03-07 08:25:00,
2013-03-07 02:35:00,36.1,15.8,29.38,South,180,0.0,0.0,41,0.00,,,0.00,WeatherTracker,2013-03-07 08:35:00,
2013-03-07 02:40:00,35.6,14.0,29.38,South,180,0.0,0.0,41,0.00,,,0.00,WeatherTracker,2013-03-07 08:40:00,
2013-03-07 02:50:00,34.9,14.0,29.38,South,180,0.0,0.0,42,0.00,,,0.00,WeatherTracker,2013-03-07 08:50:00,
2013-03-07 03:00:00,34.3,14.0,29.38,South,180,0.0,0.0,43,0.00,,,0.00,WeatherTracker,2013-03-07 09:00:00,
2013-03-07 03:10:00,33.3,14.0,29.35,South,180,1.0,0.0,43,0.00,,,0.00,WeatherTracker,2013-03-07 09:10:00,
2013-03-07 03:15:00,33.3,14.0,29.35,South,180,0.0,0.0,45,0.00,,,0.00,WeatherTracker,2013-03-07 09:15:00,
2013-03-07 03:25:00,32.7,14.0,29.35,SSE,157,1.0,1.0,44,0.00,,,0.00,WeatherTracker,2013-03-07 09:25:00,
2013-03-07 03:35:00,32.7,14.0,29.35,SSE,157,1.0,2.0,45,0.00,,,0.00,WeatherTracker,2013-03-07 09:35:00,
2013-03-07 03:40:00,32.4,14.0,29.35,SSE,157,1.0,2.0,46,0.00,,,0.00,WeatherTracker,2013-03-07 09:40:00,
2013-03-07 03:50:00,32.2,14.0,29.35,SSE,157,1.0,1.0,46,0.00,,,0.00,WeatherTracker,2013-03-07 09:50:00,
2013-03-07 03:55:00,32.2,15.8,29.35,SSE,157,1.0,1.0,48,0.00,,,0.00,WeatherTracker,2013-03-07 09:55:00,
2013-03-07 04:00:00,32.5,15.8,29.35,SSE,157,1.0,0.0,49,0.00,,,0.00,WeatherTracker,2013-03-07 10:00:00,
2013-03-07 04:10:00,32.2,15.8,29.35,South,180,1.0,0.0,48,0.00,,,0.00,WeatherTracker,2013-03-07 10:10:00,
2013-03-07 04:15:00,32.2,15.8,29.35,South,180,0.0,0.0,49,0.00,,,0.00,WeatherTracker,2013-03-07 10:15:00,
2013-03-07 04:25:00,32.9,15.8,29.35,NNE,22,1.0,1.0,49,0.00,,,0.00,WeatherTracker,2013-03-07 10:25:00,
2013-03-07 04:30:00,33.8,17.6,29.35,WNW,292,1.0,1.0,50,0.00,,,0.00,WeatherTracker,2013-03-07 10:30:00,
2013-03-07 04:35:00,34.7,19.4,29.35,North,0,0.0,0.0,50,0.00,,,0.00,WeatherTracker,2013-03-07 10:35:00,
2013-03-07 04:45:00,35.6,19.4,29.35,NE,45,0.0,1.0,49,0.00,,,0.00,WeatherTracker,2013-03-07 10:45:00,
2013-03-07 04:55:00,36.1,19.4,29.32,NNE,22,2.0,2.0,49,0.00,,,0.00,WeatherTracker,2013-03-07 10:55:00,
2013-03-07 05:00:00,36.5,19.4,29.32,NNE,22,1.0,3.0,49,0.00,,,0.00,WeatherTracker,2013-03-07 11:00:00,
2013-03-07 05:10:00,37.0,19.4,29.32,WSW,247,2.0,3.0,48,0.00,,,0.00,WeatherTracker,2013-03-07 11:10:00,
2013-03-07 05:15:00,37.2,19.4,29.32,North,0,3.0,3.0,47,0.00,,,0.00,WeatherTracker,2013-03-07 11:15:00,
2013-03-07 05:20:00,37.4,19.4,29.32,North,0,2.0,3.0,46,0.00,,,0.00,WeatherTracker,2013-03-07 11:20:00,
2013-03-07 05:30:00,38.1,19.4,29.32,North,0,4.0,4.0,45,0.00,,,0.00,WeatherTracker,2013-03-07 11:30:00,
2013-03-07 05:35:00,38.1,19.4,29.32,NNW,337,3.0,3.0,45,0.00,,,0.00,WeatherTracker,2013-03-07 11:35:00,
2013-03-07 05:45:00,38.3,19.4,29.32,NNE,22,5.0,5.0,44,0.00,,,0.00,WeatherTracker,2013-03-07 11:45:00,
2013-03-07 06:00:00,38.3,17.6,29.32,NNW,337,4.0,4.0,43,0.00,,,0.00,WeatherTracker,2013-03-07 12:00:00,
2013-03-07 06:10:00,38.8,17.6,29.32,NNE,22,4.0,4.0,43,0.00,,,0.00,WeatherTracker,2013-03-07 12:10:00,
2013-03-07 06:20:00,38.7,17.6,29.32,NNE,22,3.0,4.0,43,0.00,,,0.00,WeatherTracker,2013-03-07 12:20:00,
2013-03-07 06:30:00,38.7,17.6,29.32,North,0,3.0,3.0,43,0.00,,,0.00,WeatherTracker,2013-03-07 12:30:00,
2013-03-07 06:35:00,38.5,17.6,29.35,NNE,22,3.0,3.0,43,0.00,,,0.00,WeatherTracker,2013-03-07 12:35:00,
2013-03-07 06:45:00,38.5,19.4,29.35,North,0,5.0,5.0,44,0.00,,,0.00,WeatherTracker,2013-03-07 12:45:00,
2013-03-07 06:55:00,38.5,19.4,29.35,North,0,4.0,4.0,44,0.00,,,0.00,WeatherTracker,2013-03-07 12:55:00,
2013-03-07 07:05:00,38.5,19.4,29.35,North,0,4.0,4.0,45,0.00,,,0.00,WeatherTracker,2013-03-07 13:05:00,
2013-03-07 07:10:00,38.7,19.4,29.35,NNW,337,5.0,5.0,44,0.00,,,0.00,WeatherTracker,2013-03-07 13:10:00,
2013-03-07 07:20:00,38.8,19.4,29.38,NNE,22,4.0,4.0,44,0.00,,,0.00,WeatherTracker,2013-03-07 13:20:00,
2013-03-07 07:30:00,39.2,19.4,29.38,NNE,22,6.0,6.0,44,0.00,,,0.00,WeatherTracker,2013-03-07 13:30:00,
2013-03-07 07:40:00,40.1,19.4,29.38,NNE,22,8.0,8.0,43,0.00,,,0.00,WeatherTracker,2013-03-07 13:40:00,
2013-03-07 07:45:00,40.5,19.4,29.38,NNW,337,7.0,7.0,43,0.00,,,0.00,WeatherTracker,2013-03-07 13:45:00,
2013-03-07 07:50:00,40.6,19.4,29.41,NNE,22,8.0,8.0,43,0.00,,,0.00,WeatherTracker,2013-03-07 13:50:00,
2013-03-07 07:55:00,41.0,19.4,29.41,North,0,9.0,11.0,41,0.00,,,0.00,WeatherTracker,2013-03-07 13:55:00,
2013-03-07 08:05:00,41.7,19.4,29.41,NNW,337,9.0,9.0,41,0.00,,,0.00,WeatherTracker,2013-03-07 14:05:00,
2013-03-07 08:15:00,43.2,21.2,29.41,North,0,7.0,10.0,41,0.00,,,0.00,WeatherTracker,2013-03-07 14:15:00,
2013-03-07 08:20:00,44.1,21.2,29.41,North,0,8.0,8.0,40,0.00,,,0.00,WeatherTracker,2013-03-07 14:20:00,
2013-03-07 08:25:00,44.8,21.2,29.41,North,0,7.0,8.0,39,0.00,,,0.00,WeatherTracker,2013-03-07 14:25:00,
2013-03-07 08:30:00,45.1,21.2,29.41,North,0,9.0,11.0,39,0.00,,,0.00,WeatherTracker,2013-03-07 14:30:00,
2013-03-07 08:40:00,45.9,21.2,29.41,NNW,337,9.0,11.0,38,0.00,,,0.00,WeatherTracker,2013-03-07 14:40:00,
2013-03-07 08:50:00,47.1,23.0,29.41,North,0,7.0,10.0,38,0.00,,,0.00,WeatherTracker,2013-03-07 14:50:00,
2013-03-07 08:55:00,47.8,23.0,29.41,NNE,22,7.0,8.0,37,0.00,,,0.00,WeatherTracker,2013-03-07 14:55:00,
2013-03-07 09:06:00,48.7,23.0,29.41,NNE,22,7.0,11.0,37,0.00,,,0.00,WeatherTracker,2013-03-07 15:06:00,
2013-03-07 09:15:00,49.5,23.0,29.41,NNE,22,10.0,10.0,35,0.00,,,0.00,WeatherTracker,2013-03-07 15:15:00,
2013-03-07 09:25:00,50.5,23.0,29.41,North,0,10.0,10.0,34,0.00,,,0.00,WeatherTracker,2013-03-07 15:25:00,
2013-03-07 09:30:00,51.1,23.0,29.41,North,0,7.0,10.0,34,0.00,,,0.00,WeatherTracker,2013-03-07 15:30:00,
2013-03-07 09:35:00,51.8,23.0,29.41,NNE,22,9.0,13.0,32,0.00,,,0.00,WeatherTracker,2013-03-07 15:35:00,
2013-03-07 09:40:00,52.3,23.0,29.41,NNE,22,9.0,11.0,31,0.00,,,0.00,WeatherTracker,2013-03-07 15:40:00,
2013-03-07 09:45:00,53.1,23.0,29.41,NNE,22,9.0,9.0,30,0.00,,,0.00,WeatherTracker,2013-03-07 15:45:00,
2013-03-07 09:55:00,54.0,21.2,29.41,NNE,22,9.0,11.0,28,0.00,,,0.00,WeatherTracker,2013-03-07 15:55:00,
2013-03-07 10:00:00,54.1,23.0,29.41,North,0,11.0,15.0,28,0.00,,,0.00,WeatherTracker,2013-03-07 16:00:00,
2013-03-07 10:05:00,54.0,21.2,29.38,NNE,22,13.0,13.0,28,0.00,,,0.00,WeatherTracker,2013-03-07 16:05:00,
2013-03-07 10:15:00,55.0,23.0,29.38,North,0,8.0,8.0,27,0.00,,,0.00,WeatherTracker,2013-03-07 16:15:00,
2013-03-07 10:25:00,55.0,23.0,29.41,NNE,22,13.0,13.0,27,0.00,,,0.00,WeatherTracker,2013-03-07 16:25:00,
2013-03-07 10:35:00,55.9,23.0,29.38,NNW,337,9.0,15.0,27,0.00,,,0.00,WeatherTracker,2013-03-07 16:35:00,
2013-03-07 10:40:00,55.9,23.0,29.38,NNE,22,13.0,16.0,27,0.00,,,0.00,WeatherTracker,2013-03-07 16:40:00,
2013-03-07 10:45:00,56.7,23.0,29.38,NNW,337,8.0,8.0,27,0.00,,,0.00,WeatherTracker,2013-03-07 16:45:00,
2013-03-07 10:50:00,56.7,23.0,29.38,NNW,337,13.0,13.0,26,0.00,,,0.00,WeatherTracker,2013-03-07 16:50:00,
2013-03-07 10:55:00,57.4,23.0,29.38,WNW,292,13.0,13.0,26,0.00,,,0.00,WeatherTracker,2013-03-07 16:55:00,
2013-03-07 11:00:00,57.2,23.0,29.38,NNE,22,11.0,13.0,26,0.00,,,0.00,WeatherTracker,2013-03-07 17:00:00,
2013-03-07 11:05:00,57.7,23.0,29.38,NNE,22,10.0,13.0,26,0.00,,,0.00,WeatherTracker,2013-03-07 17:05:00,
2013-03-07 11:10:00,57.9,23.0,29.38,North,0,11.0,11.0,26,0.00,,,0.00,WeatherTracker,2013-03-07 17:10:00,
2013-03-07 11:15:00,58.1,23.0,29.38,NNE,22,8.0,10.0,25,0.00,,,0.00,WeatherTracker,2013-03-07 17:15:00,
2013-03-07 11:20:00,58.3,23.0,29.38,North,0,13.0,17.0,25,0.00,,,0.00,WeatherTracker,2013-03-07 17:20:00,
2013-03-07 11:25:00,58.8,23.0,29.38,NNW,337,9.0,10.0,25,0.00,,,0.00,WeatherTracker,2013-03-07 17:25:00,
2013-03-07 11:30:00,59.5,23.0,29.38,NNW,337,10.0,10.0,25,0.00,,,0.00,WeatherTracker,2013-03-07 17:30:00,
2013-03-07 11:35:00,59.7,23.0,29.38,NNW,337,11.0,11.0,25,0.00,,,0.00,WeatherTracker,2013-03-07 17:35:00,
2013-03-07 11:40:00,60.1,24.8,29.38,NNE,22,10.0,10.0,25,0.00,,,0.00,WeatherTracker,2013-03-07 17:40:00,
2013-03-07 11:45:00,60.4,24.8,29.38,North,0,13.0,13.0,25,0.00,,,0.00,WeatherTracker,2013-03-07 17:45:00,
2013-03-07 11:50:00,60.6,24.8,29.38,NNW,337,11.0,13.0,25,0.00,,,0.00,WeatherTracker,2013-03-07 17:50:00,
2013-03-07 11:55:00,60.4,24.8,29.38,North,0,13.0,13.0,25,0.00,,,0.00,WeatherTracker,2013-03-07 17:55:00,
2013-03-07 12:00:00,61.0,23.0,29.38,North,0,11.0,14.0,24,0.00,,,0.00,WeatherTracker,2013-03-07 18:00:00,
2013-03-07 12:05:00,61.7,24.8,29.38,North,0,9.0,15.0,24,0.00,,,0.00,WeatherTracker,2013-03-07 18:05:00,
2013-03-07 12:10:00,61.5,24.8,29.38,NNE,22,12.0,15.0,24,0.00,,,0.00,WeatherTracker,2013-03-07 18:10:00,
2013-03-07 12:15:00,62.4,24.8,29.38,NNE,22,8.0,9.0,24,0.00,,,0.00,WeatherTracker,2013-03-07 18:15:00,
2013-03-07 12:20:00,61.9,24.8,29.35,North,0,12.0,12.0,24,0.00,,,0.00,WeatherTracker,2013-03-07 18:20:00,
2013-03-07 12:25:00,62.4,24.8,29.35,SE,135,11.0,12.0,24,0.00,,,0.00,WeatherTracker,2013-03-07 18:25:00,
2013-03-07 12:30:00,62.8,24.8,29.35,NNE,22,9.0,14.0,23,0.00,,,0.00,WeatherTracker,2013-03-07 18:30:00,
2013-03-07 12:35:00,63.0,24.8,29.35,North,0,13.0,13.0,23,0.00,,,0.00,WeatherTracker,2013-03-07 18:35:00,
2013-03-07 12:45:00,64.2,23.0,29.35,NNW,337,9.0,9.0,21,0.00,,,0.00,WeatherTracker,2013-03-07 18:45:00,
2013-03-07 12:50:00,63.9,23.0,29.35,ENE,67,9.0,9.0,21,0.00,,,0.00,WeatherTracker,2013-03-07 18:50:00,
2013-03-07 13:00:00,64.4,23.0,29.35,North,0,13.0,13.0,20,0.00,,,0.00,WeatherTracker,2013-03-07 19:00:00,
2013-03-07 13:05:00,64.0,23.0,29.35,NNE,22,11.0,13.0,21,0.00,,,0.00,WeatherTracker,2013-03-07 19:05:00,
2013-03-07 13:10:00,64.4,23.0,29.35,NNE,22,10.0,10.0,20,0.00,,,0.00,WeatherTracker,2013-03-07 19:10:00,
2013-03-07 13:20:00,64.8,21.2,29.32,North,0,14.0,14.0,18,0.00,,,0.00,WeatherTracker,2013-03-07 19:20:00,
2013-03-07 13:30:00,65.3,21.2,29.32,NNW,337,9.0,12.0,18,0.00,,,0.00,WeatherTracker,2013-03-07 19:30:00,
2013-03-07 13:35:00,65.1,21.2,29.32,NNE,22,12.0,12.0,18,0.00,,,0.00,WeatherTracker,2013-03-07 19:35:00,
2013-03-07 13:45:00,65.3,21.2,29.32,NNE,22,14.0,14.0,18,0.00,,,0.00,WeatherTracker,2013-03-07 19:45:00,
2013-03-07 13:50:00,64.9,21.2,29.32,NNE,22,15.0,15.0,18,0.00,,,0.00,WeatherTracker,2013-03-07 19:50:00,
2013-03-07 13:55:00,64.9,23.0,29.32,North,0,11.0,11.0,20,0.00,,,0.00,WeatherTracker,2013-03-07 19:55:00,
2013-03-07 14:05:00,65.5,21.2,29.32,North,0,8.0,11.0,18,0.00,,,0.00,WeatherTracker,2013-03-07 20:05:00,
2013-03-07 14:15:00,65.5,23.0,29.32,North,0,9.0,14.0,20,0.00,,,0.00,WeatherTracker,2013-03-07 20:15:00,
2013-03-07 14:20:00,65.5,21.2,29.29,North,0,13.0,13.0,18,0.00,,,0.00,WeatherTracker,2013-03-07 20:20:00,
2013-03-07 14:30:00,66.6,21.2,29.29,NNW,337,10.0,13.0,17,0.00,,,0.00,WeatherTracker,2013-03-07 20:30:00,
2013-03-07 14:35:00,66.7,21.2,29.29,North,0,11.0,13.0,17,0.00,,,0.00,WeatherTracker,2013-03-07 20:35:00,
2013-03-07 14:40:00,66.4,19.4,29.29,NW,315,12.0,12.0,17,0.00,,,0.00,WeatherTracker,2013-03-07 20:40:00,
2013-03-07 14:50:00,66.2,19.4,29.29,North,0,13.0,13.0,17,0.00,,,0.00,WeatherTracker,2013-03-07 20:50:00,
2013-03-07 14:55:00,65.7,21.2,29.29,NNW,337,11.0,11.0,18,0.00,,,0.00,WeatherTracker,2013-03-07 20:55:00,
2013-03-07 15:05:00,66.2,19.4,29.29,NNE,22,10.0,11.0,17,0.00,,,0.00,WeatherTracker,2013-03-07 21:05:00,
2013-03-07 15:15:00,65.7,21.2,29.29,North,0,13.0,17.0,18,0.00,,,0.00,WeatherTracker,2013-03-07 21:15:00,
2013-03-07 15:25:00,65.8,21.2,29.29,North,0,11.0,14.0,18,0.00,,,0.00,WeatherTracker,2013-03-07 21:25:00,
2013-03-07 15:30:00,65.7,21.2,29.29,NNE,22,14.0,16.0,18,0.00,,,0.00,WeatherTracker,2013-03-07 21:30:00,
2013-03-07 15:40:00,66.0,21.2,29.29,NNE,22,9.0,9.0,18,0.00,,,0.00,WeatherTracker,2013-03-07 21:40:00,
2013-03-07 15:50:00,66.2,19.4,29.29,NNE,22,9.0,10.0,17,0.00,,,0.00,WeatherTracker,2013-03-07 21:50:00,
2013-03-07 15:55:00,66.4,19.4,29.29,NNW,337,9.0,10.0,17,0.00,,,0.00,WeatherTracker,2013-03-07 21:55:00,
2013-03-07 16:05:00,65.8,21.2,29.29,North,0,14.0,14.0,18,0.00,,,0.00,WeatherTracker,2013-03-07 22:05:00,
2013-03-07 16:15:00,66.0,17.6,29.29,North,0,14.0,14.0,15,0.00,,,0.00,WeatherTracker,2013-03-07 22:15:00,
2013-03-07 16:25:00,66.2,17.6,29.29,NNE,22,11.0,18.0,15,0.00,,,0.00,WeatherTracker,2013-03-07 22:25:00,
2013-03-07 16:30:00,65.8,15.8,29.29,NNE,22,13.0,13.0,15,0.00,,,0.00,WeatherTracker,2013-03-07 22:30:00,
2013-03-07 16:40:00,66.2,17.6,29.26,NNE,22,9.0,10.0,15,0.00,,,0.00,WeatherTracker,2013-03-07 22:40:00,
2013-03-07 16:50:00,66.0,17.6,29.29,North,0,9.0,13.0,15,0.00,,,0.00,WeatherTracker,2013-03-07 22:50:00,
2013-03-07 17:00:00,65.7,15.8,29.29,NNW,337,10.0,10.0,15,0.00,,,0.00,WeatherTracker,2013-03-07 23:00:00,
2013-03-07 17:05:00,65.5,15.8,29.26,North,0,13.0,13.0,15,0.00,,,0.00,WeatherTracker,2013-03-07 23:05:00,
2013-03-07 17:15:00,65.1,21.2,29.26,NNE,22,9.0,13.0,18,0.00,,,0.00,WeatherTracker,2013-03-07 23:15:00,
2013-03-07 17:25:00,64.8,15.8,29.26,NNW,337,10.0,10.0,15,0.00,,,0.00,WeatherTracker,2013-03-07 23:25:00,
2013-03-07 17:30:00,64.8,21.2,29.26,NNE,22,8.0,13.0,18,0.00,,,0.00,WeatherTracker,2013-03-07 23:30:00,
2013-03-07 17:40:00,64.2,19.4,29.29,North,0,11.0,11.0,18,0.00,,,0.00,WeatherTracker,2013-03-07 23:40:00,
2013-03-07 17:45:00,64.0,15.8,29.29,North,0,9.0,9.0,16,0.00,,,0.00,WeatherTracker,2013-03-07 23:45:00,
2013-03-07 17:50:00,63.9,15.8,29.29,North,0,12.0,12.0,16,0.00,,,0.00,WeatherTracker,2013-03-07 23:50:00,
2013-03-07 18:00:00,63.5,19.4,29.29,NNE,22,11.0,11.0,18,0.00,,,0.00,WeatherTracker,2013-03-08 00:00:00,
2013-03-07 18:10:00,62.8,19.4,29.26,North,0,10.0,10.0,18,0.00,,,0.00,WeatherTracker,2013-03-08 00:10:00,
2013-03-07 18:15:00,62.4,19.4,29.26,NNE,22,7.0,7.0,19,0.00,,,0.00,WeatherTracker,2013-03-08 00:15:00,
2013-03-07 18:25:00,61.9,19.4,29.29,North,0,8.0,9.0,19,0.00,,,0.00,WeatherTracker,2013-03-08 00:25:00,
2013-03-07 18:30:00,61.7,19.4,29.29,NNW,337,7.0,7.0,19,0.00,,,0.00,WeatherTracker,2013-03-08 00:30:00,
2013-03-07 18:35:00,61.3,19.4,29.29,North,0,8.0,8.0,19,0.00,,,0.00,WeatherTracker,2013-03-08 00:35:00,
2013-03-07 18:45:00,60.8,19.4,29.29,North,0,7.0,9.0,19,0.00,,,0.00,WeatherTracker,2013-03-08 00:45:00,
2013-03-07 18:50:00,60.8,19.4,29.29,NNE,22,7.0,14.0,19,0.00,,,0.00,WeatherTracker,2013-03-08 00:50:00,
2013-03-07 19:00:00,60.4,17.6,29.29,North,0,8.0,8.0,19,0.00,,,0.00,WeatherTracker,2013-03-08 01:00:00,
2013-03-07 19:10:00,60.3,17.6,29.29,North,0,8.0,8.0,19,0.00,,,0.00,WeatherTracker,2013-03-08 01:10:00,
2013-03-07 19:20:00,60.1,17.6,29.29,NNE,22,8.0,11.0,19,0.00,,,0.00,WeatherTracker,2013-03-08 01:20:00,
2013-03-07 19:25:00,59.9,17.6,29.29,North,0,9.0,9.0,19,0.00,,,0.00,WeatherTracker,2013-03-08 01:25:00,
2013-03-07 19:35:00,59.7,17.6,29.29,North,0,7.0,8.0,19,0.00,,,0.00,WeatherTracker,2013-03-08 01:35:00,
2013-03-07 19:45:00,59.4,17.6,29.29,North,0,7.0,9.0,19,0.00,,,0.00,WeatherTracker,2013-03-08 01:45:00,
2013-03-07 19:55:00,59.2,21.2,29.29,North,0,8.0,8.0,22,0.00,,,0.00,WeatherTracker,2013-03-08 01:55:00,
2013-03-07 20:00:00,59.2,21.2,29.29,NNW,337,9.0,9.0,22,0.00,,,0.00,WeatherTracker,2013-03-08 02:00:00,
2013-03-07 20:05:00,59.4,21.2,29.29,North,0,10.0,10.0,22,0.00,,,0.00,WeatherTracker,2013-03-08 02:05:00,
2013-03-07 20:10:00,59.4,21.2,29.29,North,0,9.0,9.0,22,0.00,,,0.00,WeatherTracker,2013-03-08 02:10:00,
2013-03-07 20:15:00,59.2,21.2,29.29,NNE,22,7.0,12.0,22,0.00,,,0.00,WeatherTracker,2013-03-08 02:15:00,
2013-03-07 20:20:00,59.2,21.2,29.29,North,0,8.0,8.0,22,0.00,,,0.00,WeatherTracker,2013-03-08 02:20:00,
2013-03-07 20:25:00,58.8,21.2,29.29,NNW,337,6.0,9.0,22,0.00,,,0.00,WeatherTracker,2013-03-08 02:25:00,
2013-03-07 20:30:00,58.5,19.4,29.29,North,0,6.0,6.0,22,0.00,,,0.00,WeatherTracker,2013-03-08 02:30:00,
2013-03-07 20:35:00,58.1,19.4,29.29,North,0,5.0,5.0,22,0.00,,,0.00,WeatherTracker,2013-03-08 02:35:00,
2013-03-07 20:45:00,57.6,21.2,29.29,North,0,5.0,6.0,24,0.00,,,0.00,WeatherTracker,2013-03-08 02:45:00,
2013-03-07 20:50:00,57.4,21.2,29.32,North,0,5.0,6.0,24,0.00,,,0.00,WeatherTracker,2013-03-08 02:50:00,
2013-03-07 20:55:00,57.4,21.2,29.32,NNW,337,8.0,8.0,24,0.00,,,0.00,WeatherTracker,2013-03-08 02:55:00,
2013-03-07 21:05:00,57.2,21.2,29.32,NNW,337,9.0,9.0,24,0.00,,,0.00,WeatherTracker,2013-03-08 03:05:00,
2013-03-07 21:10:00,57.0,21.2,29.32,North,0,6.0,6.0,25,0.00,,,0.00,WeatherTracker,2013-03-08 03:10:00,
2013-03-07 21:15:00,56.8,21.2,29.32,NNE,22,6.0,10.0,25,0.00,,,0.00,WeatherTracker,2013-03-08 03:15:00,
2013-03-07 21:20:00,56.5,21.2,29.32,North,0,6.0,6.0,25,0.00,,,0.00,WeatherTracker,2013-03-08 03:20:00,
2013-03-07 21:30:00,56.3,21.2,29.32,North,0,6.0,6.0,25,0.00,,,0.00,WeatherTracker,2013-03-08 03:30:00,
2013-03-07 21:40:00,56.1,21.2,29.29,North,0,7.0,7.0,25,0.00,,,0.00,WeatherTracker,2013-03-08 03:40:00,
2013-03-07 21:45:00,55.9,21.2,29.29,North,0,6.0,6.0,25,0.00,,,0.00,WeatherTracker,2013-03-08 03:45:00,
2013-03-07 21:55:00,55.4,21.2,29.32,North,0,5.0,6.0,25,0.00,,,0.00,WeatherTracker,2013-03-08 03:55:00,
2013-03-07 22:05:00,54.9,21.2,29.32,NNE,22,6.0,6.0,26,0.00,,,0.00,WeatherTracker,2013-03-08 04:05:00,
2013-03-07 22:10:00,54.7,21.2,29.32,North,0,7.0,7.0,26,0.00,,,0.00,WeatherTracker,2013-03-08 04:10:00,
2013-03-07 22:20:00,54.7,21.2,29.32,North,0,7.0,8.0,26,0.00,,,0.00,WeatherTracker,2013-03-08 04:20:00,
2013-03-07 22:25:00,54.7,21.2,29.32,NNW,337,8.0,8.0,27,0.00,,,0.00,WeatherTracker,2013-03-08 04:25:00,
2013-03-07 22:35:00,54.7,21.2,29.29,NNE,22,7.0,7.0,27,0.00,,,0.00,WeatherTracker,2013-03-08 04:35:00,
2013-03-07 22:40:00,54.7,21.2,29.29,NNW,337,7.0,7.0,27,0.00,,,0.00,WeatherTracker,2013-03-08 04:40:00,
2013-03-07 22:45:00,54.5,21.2,29.29,North,0,5.0,5.0,27,0.00,,,0.00,WeatherTracker,2013-03-08 04:45:00,
2013-03-07 22:55:00,54.3,21.2,29.32,NNW,337,6.0,6.0,27,0.00,,,0.00,WeatherTracker,2013-03-08 04:55:00,
2013-03-07 23:00:00,54.1,21.2,29.32,North,0,6.0,6.0,27,0.00,,,0.00,WeatherTracker,2013-03-08 05:00:00,
2013-03-07 23:05:00,54.0,21.2,29.32,NNE,22,6.0,6.0,28,0.00,,,0.00,WeatherTracker,2013-03-08 05:05:00,
2013-03-07 23:10:00,54.0,21.2,29.32,North,0,8.0,8.0,27,0.00,,,0.00,WeatherTracker,2013-03-08 05:10:00,
2013-03-07 23:15:00,53.8,21.2,29.32,North,0,7.0,8.0,28,0.00,,,0.00,WeatherTracker,2013-03-08 05:15:00,
2013-03-07 23:25:00,53.2,21.2,29.29,NNW,337,6.0,6.0,28,0.00,,,0.00,WeatherTracker,2013-03-08 05:25:00,
2013-03-07 23:35:00,53.1,21.2,29.29,NNW,337,7.0,7.0,29,0.00,,,0.00,WeatherTracker,2013-03-08 05:35:00,
2013-03-07 23:40:00,52.9,21.2,29.29,North,0,7.0,7.0,29,0.00,,,0.00,WeatherTracker,2013-03-08 05:40:00,
2013-03-07 23:45:00,52.9,21.2,29.29,NNW,337,6.0,6.0,29,0.00,,,0.00,WeatherTracker,2013-03-08 05:45:00,
2013-03-07 23:55:00,52.5,21.2,29.32,North,0,7.0,7.0,29,0.00,,,0.00,WeatherTracker,2013-03-08 05:55:00,